| time (UTC) | temp F | wind direction | speed knots | gust knots | rain 1hr in | rain 24hr in | rain mn in | humidity % | barometer mb |
| 20260507184002 | 73 | 106 | 0.0 | 2.6 | 0.00 | 0.00 | 0.00 | 60 | 1017.3 |
| 20260507183503 | 72 | 99 | 0.0 | 2.6 | 0.00 | 0.00 | 0.00 | 61 | 1017.5 |
| 20260507183003 | 72 | 112 | 0.0 | 2.6 | 0.00 | 0.00 | 0.00 | 59 | 1017.5 |
| 20260507182502 | 72 | 96 | 0.9 | 2.6 | 0.00 | 0.00 | 0.00 | 63 | 1017.6 |
| 20260507182002 | 71 | 90 | 0.9 | 2.6 | 0.00 | 0.00 | 0.00 | 61 | 1017.7 |
| 20260507181502 | 71 | 100 | 0.0 | 2.6 | 0.00 | 0.00 | 0.00 | 60 | 1017.7 |
| 20260507180003 | 70 | 50 | 0.9 | 2.6 | 0.00 | 0.00 | 0.00 | 60 | 1017.9 |
| 20260507175502 | 70 | 67 | 0.9 | 2.6 | 0.00 | 0.00 | 0.00 | 60 | 1017.9 |
| 20260507175003 | 70 | 99 | 0.0 | 2.6 | 0.00 | 0.00 | 0.00 | 62 | 1017.9 |
| 20260507174502 | 70 | 126 | 0.0 | 2.6 | 0.00 | 0.00 | 0.00 | 63 | 1018.1 |
| 20260507174002 | 70 | 136 | 0.0 | 1.7 | 0.00 | 0.00 | 0.00 | 62 | 1018.3 |
| 20260507173502 | 70 | 130 | 0.0 | 1.7 | 0.00 | 0.00 | 0.00 | 62 | 1018.3 |
| 20260507173002 | 70 | 138 | 0.0 | 1.7 | 0.00 | 0.00 | 0.00 | 64 | 1018.4 |
| 20260507172502 | 70 | 169 | 0.0 | 1.7 | 0.00 | 0.00 | 0.00 | 64 | 1018.5 |
| 20260507172002 | 70 | 136 | 0.0 | 1.7 | 0.00 | 0.00 | 0.00 | 64 | 1018.7 |
| 20260507171502 | 69 | 110 | 0.0 | 1.7 | 0.00 | 0.00 | 0.00 | 64 | 1019.0 |
| 20260507171003 | 70 | 108 | 0.0 | 1.7 | 0.00 | 0.00 | 0.00 | 64 | 1019.3 |
| 20260507170003 | 70 | 115 | 0.0 | 1.7 | 0.00 | 0.00 | 0.00 | 65 | 1019.4 |
| 20260507165002 | 69 | 147 | 0.0 | 1.7 | 0.00 | 0.00 | 0.00 | 65 | 1019.5 |
| 20260507164002 | 68 | 129 | 0.0 | 3.5 | 0.00 | 0.00 | 0.00 | 67 | 1019.6 |
| 20260507163502 | 68 | 124 | 0.0 | 1.7 | 0.00 | 0.00 | 0.00 | 66 | 1019.7 |
| 20260507163003 | 68 | 124 | 0.0 | 1.7 | 0.00 | 0.00 | 0.00 | 66 | 1019.6 |
| 20260507162003 | 68 | 123 | 0.0 | 1.7 | 0.00 | 0.00 | 0.00 | 67 | 1019.8 |
| 20260507161502 | 68 | 135 | 0.0 | 1.7 | 0.00 | 0.00 | 0.00 | 68 | 1019.7 |
| 20260507161003 | 68 | 30 | 0.0 | 2.6 | 0.00 | 0.00 | 0.00 | 67 | 1019.6 |
| 20260507160502 | 67 | 105 | 0.0 | 2.6 | 0.00 | 0.00 | 0.00 | 68 | 1019.6 |
| 20260507160003 | 67 | 116 | 0.0 | 1.7 | 0.00 | 0.00 | 0.00 | 70 | 1019.6 |
| 20260507155502 | 67 | 113 | 0.0 | 1.7 | 0.00 | 0.00 | 0.00 | 69 | 1019.6 |
| 20260507155002 | 67 | 289 | 0.0 | 2.6 | 0.00 | 0.00 | 0.00 | 69 | 1019.6 |
| 20260507154503 | 67 | 124 | 0.0 | 2.6 | 0.00 | 0.00 | 0.00 | 68 | 1019.6 |
| 20260507154002 | 67 | 110 | 0.9 | 1.7 | 0.00 | 0.00 | 0.00 | 70 | 1019.7 |
| 20260507153003 | 67 | 119 | 0.0 | 3.5 | 0.00 | 0.00 | 0.00 | 70 | 1019.9 |
| 20260507152502 | 66 | 0 | 0.0 | 0.0 | 0.00 | 0.00 | 0.00 | 69 | 1019.9 |
| 20260507151502 | 66 | 162 | 0.0 | 0.9 | 0.00 | 0.00 | 0.00 | 71 | 1020.0 |
| 20260507151002 | 66 | 252 | 0.0 | 0.9 | 0.00 | 0.00 | 0.00 | 72 | 1020.0 |
| 20260507150503 | 66 | 93 | 0.0 | 2.6 | 0.00 | 0.00 | 0.00 | 73 | 1020.0 |
| 20260507150002 | 65 | 101 | 0.0 | 2.6 | 0.00 | 0.00 | 0.00 | 73 | 1020.0 |
| 20260507145502 | 65 | 110 | 0.0 | 2.6 | 0.00 | 0.00 | 0.00 | 74 | 1020.0 |
| 20260507144502 | 64 | 236 | 0.0 | 0.9 | 0.00 | 0.00 | 0.00 | 74 | 1020.0 |
| 20260507144003 | 64 | 236 | 0.0 | 0.9 | 0.00 | 0.00 | 0.00 | 75 | 1020.0 |
| 20260507143003 | 63 | 247 | 0.0 | 0.9 | 0.00 | 0.00 | 0.00 | 77 | 1020.1 |
| 20260507142502 | 62 | 253 | 0.0 | 1.7 | 0.00 | 0.00 | 0.00 | 79 | 1020.2 |
| 20260507142003 | 62 | 263 | 0.0 | 1.7 | 0.00 | 0.00 | 0.00 | 80 | 1020.1 |
| 20260507141502 | 61 | 267 | 0.0 | 0.9 | 0.00 | 0.00 | 0.00 | 79 | 1020.1 |
| 20260507141002 | 61 | 0 | 0.0 | 0.0 | 0.00 | 0.00 | 0.00 | 78 | 1020.2 |
| 20260507140003 | 61 | 273 | 0.0 | 0.9 | 0.00 | 0.00 | 0.00 | 80 | 1020.3 |
| 20260507135503 | 60 | 271 | 0.0 | 0.9 | 0.00 | 0.00 | 0.00 | 83 | 1020.4 |
| 20260507135002 | 59 | 270 | 0.0 | 2.6 | 0.00 | 0.00 | 0.00 | 84 | 1020.4 |
| 20260507134502 | 59 | 270 | 0.0 | 2.6 | 0.00 | 0.00 | 0.00 | 84 | 1020.6 |
| 20260507134003 | 58 | 267 | 0.0 | 1.7 | 0.00 | 0.00 | 0.00 | 86 | 1020.5 |
| 20260507133502 | 57 | 267 | 0.0 | 1.7 | 0.00 | 0.00 | 0.00 | 86 | 1020.5 |
| 20260507131503 | 56 | 275 | 0.0 | 0.9 | 0.00 | 0.00 | 0.00 | 89 | 1020.4 |
| 20260507131003 | 56 | 277 | 0.0 | 1.7 | 0.00 | 0.00 | 0.00 | 89 | 1020.5 |
| 20260507130502 | 55 | 276 | 0.0 | 1.7 | 0.00 | 0.00 | 0.00 | 90 | 1020.5 |
| 20260507130003 | 55 | 274 | 0.0 | 1.7 | 0.00 | 0.00 | 0.00 | 91 | 1020.5 |
| 20260507125503 | 55 | 274 | 0.0 | 1.7 | 0.00 | 0.00 | 0.00 | 92 | 1020.5 |
| 20260507125002 | 54 | 273 | 0.0 | 1.7 | 0.00 | 0.00 | 0.00 | 92 | 1020.4 |
| 20260507124503 | 54 | 262 | 0.0 | 1.7 | 0.00 | 0.00 | 0.00 | 93 | 1020.3 |
| 20260507124002 | 54 | 223 | 0.0 | 0.9 | 0.00 | 0.00 | 0.00 | 93 | 1020.1 |
| 20260507123502 | 53 | 0 | 0.0 | 0.0 | 0.00 | 0.00 | 0.00 | 93 | 1020.1 |
| 20260507123003 | 53 | 0 | 0.0 | 0.0 | 0.00 | 0.00 | 0.00 | 93 | 1020.1 |
| 20260507122503 | 53 | 0 | 0.0 | 0.0 | 0.00 | 0.00 | 0.00 | 93 | 1020.1 |
| 20260507115503 | 53 | 222 | 0.0 | 0.9 | 0.00 | 0.00 | 0.00 | 93 | 1019.7 |
| 20260507115003 | 53 | 222 | 0.0 | 0.9 | 0.00 | 0.00 | 0.00 | 93 | 1019.6 |
| 20260507114503 | 53 | 223 | 0.0 | 0.9 | 0.00 | 0.00 | 0.00 | 92 | 1019.8 |
| 20260507113503 | 53 | 0 | 0.0 | 0.0 | 0.00 | 0.00 | 0.00 | 92 | 1019.7 |
| 20260507113003 | 53 | 0 | 0.0 | 0.0 | 0.00 | 0.00 | 0.00 | 92 | 1019.5 |
| 20260507112502 | 53 | 0 | 0.0 | 0.0 | 0.00 | 0.00 | 0.00 | 92 | 1019.6 |
| 20260507112003 | 53 | 0 | 0.0 | 0.0 | 0.00 | 0.00 | 0.00 | 92 | 1019.6 |
| 20260507111503 | 54 | 0 | 0.0 | 0.0 | 0.00 | 0.00 | 0.00 | 92 | 1019.6 |
| 20260507111002 | 54 | 265 | 0.0 | 3.5 | 0.00 | 0.00 | 0.00 | 92 | 1019.7 |
| 20260507110503 | 54 | 252 | 0.0 | 3.5 | 0.00 | 0.00 | 0.00 | 92 | 1019.6 |
| 20260507110003 | 53 | 142 | 0.0 | 1.7 | 0.00 | 0.00 | 0.00 | 92 | 1019.4 |
| 20260507105502 | 53 | 123 | 0.0 | 0.9 | 0.00 | 0.00 | 0.00 | 92 | 1019.0 |
| 20260507105003 | 53 | 0 | 0.0 | 0.0 | 0.00 | 0.00 | 0.00 | 92 | 1018.7 |
| 20260507104503 | 53 | 0 | 0.0 | 0.0 | 0.00 | 0.00 | 0.00 | 91 | 1018.5 |
| 20260507104004 | 53 | 0 | 0.0 | 0.0 | 0.00 | 0.00 | 0.00 | 91 | 1018.5 |
| 20260507103503 | 53 | 0 | 0.0 | 0.0 | 0.00 | 0.00 | 0.00 | 91 | 1018.5 |
| 20260507102503 | 53 | 0 | 0.0 | 0.0 | 0.00 | 0.00 | 0.00 | 91 | 1018.1 |
| 20260507102002 | 53 | 0 | 0.0 | 0.0 | 0.00 | 0.00 | 0.00 | 90 | 1018.1 |
| 20260507101503 | 53 | 0 | 0.0 | 0.0 | 0.00 | 0.00 | 0.00 | 91 | 1018.1 |
| 20260507101003 | 53 | 0 | 0.0 | 0.0 | 0.00 | 0.00 | 0.00 | 90 | 1018.2 |
| 20260507100502 | 53 | 0 | 0.0 | 0.0 | 0.00 | 0.00 | 0.00 | 90 | 1018.3 |
| 20260507100003 | 53 | 0 | 0.0 | 0.0 | 0.00 | 0.00 | 0.00 | 90 | 1018.2 |
| 20260507095503 | 53 | 0 | 0.0 | 0.0 | 0.00 | 0.00 | 0.00 | 90 | 1018.0 |
| 20260507095002 | 53 | 0 | 0.0 | 0.0 | 0.00 | 0.00 | 0.00 | 90 | 1017.9 |
| 20260507094503 | 53 | 0 | 0.0 | 0.0 | 0.00 | 0.00 | 0.00 | 89 | 1018.1 |
| 20260507094004 | 54 | 125 | 0.0 | 1.7 | 0.00 | 0.00 | 0.00 | 89 | 1018.0 |
| 20260507093503 | 54 | 125 | 0.0 | 1.7 | 0.00 | 0.00 | 0.00 | 89 | 1018.0 |
| 20260507093003 | 54 | 0 | 0.0 | 0.0 | 0.00 | 0.00 | 0.00 | 89 | 1018.0 |
| 20260507092503 | 54 | 0 | 0.0 | 0.0 | 0.00 | 0.00 | 0.00 | 89 | 1017.9 |
| 20260507092003 | 54 | 128 | 0.0 | 0.9 | 0.00 | 0.00 | 0.00 | 89 | 1017.9 |
| 20260507091503 | 54 | 128 | 0.0 | 0.9 | 0.00 | 0.00 | 0.00 | 89 | 1017.8 |
| 20260507091003 | 54 | 128 | 0.0 | 0.9 | 0.00 | 0.00 | 0.00 | 89 | 1017.7 |
| 20260507090503 | 55 | 0 | 0.0 | 0.0 | 0.00 | 0.00 | 0.00 | 89 | 1017.7 |
| 20260507090005 | 55 | 0 | 0.0 | 0.0 | 0.00 | 0.00 | 0.00 | 89 | 1017.9 |
| 20260507085503 | 55 | 0 | 0.0 | 0.0 | 0.00 | 0.00 | 0.00 | 89 | 1017.9 |
| 20260507084503 | 55 | 128 | 0.0 | 0.9 | 0.00 | 0.00 | 0.00 | 88 | 1017.7 |
| 20260507084002 | 55 | 128 | 0.0 | 0.9 | 0.00 | 0.00 | 0.00 | 88 | 1017.7 |
| 20260507083503 | 55 | 128 | 0.0 | 0.9 | 0.00 | 0.00 | 0.00 | 88 | 1017.6 |
| 20260507083003 | 55 | 128 | 0.0 | 0.9 | 0.00 | 0.00 | 0.00 | 89 | 1017.7 |
| 20260507082503 | 55 | 121 | 0.0 | 1.7 | 0.00 | 0.00 | 0.00 | 88 | 1017.7 |
| 20260507082004 | 55 | 121 | 0.0 | 1.7 | 0.00 | 0.00 | 0.00 | 88 | 1017.6 |
| 20260507081503 | 56 | 51 | 0.0 | 0.9 | 0.00 | 0.00 | 0.00 | 88 | 1017.6 |
| 20260507081004 | 56 | 50 | 0.0 | 0.9 | 0.00 | 0.00 | 0.00 | 89 | 1017.5 |
| 20260507080503 | 56 | 51 | 0.0 | 0.9 | 0.00 | 0.00 | 0.00 | 88 | 1017.4 |
| 20260507080003 | 56 | 103 | 0.0 | 1.7 | 0.00 | 0.00 | 0.00 | 88 | 1017.3 |
| 20260507075503 | 56 | 140 | 0.0 | 2.6 | 0.00 | 0.00 | 0.00 | 88 | 1017.3 |
| 20260507075004 | 56 | 123 | 0.0 | 2.6 | 0.00 | 0.00 | 0.00 | 87 | 1017.2 |
| 20260507074503 | 56 | 103 | 0.0 | 2.6 | 0.00 | 0.00 | 0.00 | 88 | 1017.1 |
| 20260507074004 | 56 | 105 | 0.9 | 1.7 | 0.00 | 0.00 | 0.00 | 88 | 1017.0 |
| 20260507073503 | 56 | 108 | 0.0 | 1.7 | 0.00 | 0.00 | 0.00 | 88 | 1017.0 |
| 20260507073004 | 56 | 118 | 0.0 | 1.7 | 0.00 | 0.00 | 0.00 | 89 | 1017.0 |
| 20260507072503 | 56 | 119 | 0.0 | 0.9 | 0.00 | 0.00 | 0.00 | 89 | 1016.9 |
| 20260507072004 | 56 | 87 | 0.0 | 4.3 | 0.00 | 0.00 | 0.00 | 89 | 1017.1 |
| 20260507071504 | 56 | 90 | 0.9 | 4.3 | 0.00 | 0.00 | 0.00 | 89 | 1017.1 |
| 20260507071003 | 56 | 131 | 0.0 | 2.6 | 0.00 | 0.00 | 0.00 | 89 | 1017.1 |
| 20260507070504 | 56 | 122 | 0.9 | 4.3 | 0.00 | 0.00 | 0.00 | 89 | 1017.2 |
| 20260507065503 | 56 | 97 | 0.0 | 2.6 | 0.00 | 0.00 | 0.00 | 88 | 1017.0 |
| 20260507065003 | 56 | 87 | 0.0 | 2.6 | 0.00 | 0.00 | 0.00 | 88 | 1017.1 |
| 20260507063503 | 57 | 55 | 0.0 | 4.3 | 0.00 | 0.00 | 0.00 | 87 | 1017.0 |
| 20260507063003 | 57 | 88 | 0.0 | 4.3 | 0.00 | 0.00 | 0.00 | 87 | 1017.1 |
| 20260507062503 | 57 | 81 | 0.0 | 2.6 | 0.00 | 0.00 | 0.00 | 87 | 1017.1 |
| 20260507062004 | 57 | 84 | 0.9 | 3.5 | 0.00 | 0.00 | 0.00 | 87 | 1016.9 |
| 20260507061003 | 57 | 118 | 0.0 | 4.3 | 0.00 | 0.00 | 0.00 | 87 | 1016.9 |
| 20260507060504 | 57 | 111 | 0.0 | 2.6 | 0.00 | 0.00 | 0.00 | 86 | 1016.9 |
| 20260507060004 | 57 | 97 | 0.0 | 2.6 | 0.00 | 0.00 | 0.00 | 86 | 1016.8 |
| 20260507055503 | 58 | 126 | 0.0 | 0.9 | 0.00 | 0.00 | 0.00 | 85 | 1017.0 |
| 20260507055004 | 58 | 112 | 0.0 | 2.6 | 0.00 | 0.00 | 0.00 | 85 | 1017.0 |
| 20260507054504 | 58 | 111 | 0.9 | 2.6 | 0.00 | 0.00 | 0.00 | 85 | 1016.9 |
| 20260507054003 | 58 | 103 | 0.9 | 3.5 | 0.00 | 0.00 | 0.00 | 84 | 1016.8 |
| 20260507052503 | 58 | 89 | 0.0 | 3.5 | 0.00 | 0.00 | 0.00 | 83 | 1017.1 |
| 20260507052003 | 58 | 88 | 0.9 | 5.2 | 0.00 | 0.00 | 0.00 | 83 | 1017.1 |
| 20260507051504 | 58 | 98 | 0.9 | 5.2 | 0.00 | 0.00 | 0.00 | 83 | 1017.1 |
| 20260507051003 | 58 | 117 | 0.0 | 5.2 | 0.00 | 0.00 | 0.00 | 83 | 1017.0 |
| 20260507050503 | 59 | 99 | 0.9 | 5.2 | 0.00 | 0.00 | 0.00 | 83 | 1017.1 |
| 20260507050004 | 59 | 89 | 0.9 | 3.5 | 0.00 | 0.00 | 0.00 | 82 | 1017.1 |
| 20260507045504 | 59 | 85 | 0.9 | 4.3 | 0.00 | 0.00 | 0.00 | 82 | 1017.1 |
| 20260507045003 | 59 | 103 | 0.9 | 4.3 | 0.00 | 0.00 | 0.00 | 82 | 1017.2 |
| 20260507044501 | 59 | 104 | 0.9 | 4.3 | 0.00 | 0.00 | 0.00 | 82 | 1017.1 |
| 20260507044001 | 59 | 95 | 0.9 | 3.5 | 0.00 | 0.00 | 0.00 | 83 | 1017.2 |
| 20260507043501 | 59 | 90 | 0.9 | 3.5 | 0.00 | 0.00 | 0.00 | 82 | 1017.2 |
| 20260507043001 | 59 | 82 | 0.9 | 3.5 | 0.00 | 0.00 | 0.00 | 82 | 1017.3 |
| 20260507042502 | 59 | 76 | 0.9 | 3.5 | 0.00 | 0.00 | 0.00 | 83 | 1017.5 |
| 20260507042001 | 59 | 87 | 0.9 | 3.5 | 0.00 | 0.00 | 0.00 | 83 | 1017.4 |
| 20260507041501 | 59 | 71 | 0.9 | 3.5 | 0.00 | 0.00 | 0.00 | 83 | 1017.4 |
| 20260507041002 | 59 | 64 | 0.9 | 2.6 | 0.00 | 0.00 | 0.00 | 82 | 1017.4 |
| 20260507040501 | 60 | 90 | 0.0 | 2.6 | 0.00 | 0.00 | 0.00 | 83 | 1017.6 |
| 20260507040001 | 60 | 73 | 0.9 | 2.6 | 0.00 | 0.00 | 0.00 | 83 | 1017.6 |
| 20260507035501 | 59 | 78 | 0.9 | 3.5 | 0.00 | 0.00 | 0.00 | 83 | 1017.5 |
| 20260507035001 | 60 | 91 | 0.9 | 3.5 | 0.00 | 0.00 | 0.00 | 83 | 1017.5 |
| 20260507034501 | 60 | 84 | 0.9 | 3.5 | 0.00 | 0.00 | 0.00 | 83 | 1017.4 |
| 20260507034001 | 60 | 75 | 0.9 | 3.5 | 0.00 | 0.00 | 0.00 | 83 | 1017.4 |
| 20260507033001 | 60 | 40 | 0.9 | 2.6 | 0.00 | 0.00 | 0.00 | 83 | 1017.4 |
| 20260507032501 | 60 | 61 | 0.9 | 4.3 | 0.00 | 0.00 | 0.00 | 83 | 1017.2 |
| 20260507032001 | 60 | 104 | 0.9 | 5.2 | 0.00 | 0.00 | 0.00 | 84 | 1017.1 |
| 20260507031501 | 60 | 90 | 0.9 | 5.2 | 0.00 | 0.00 | 0.00 | 84 | 1017.1 |
| 20260507030501 | 59 | 103 | 0.0 | 1.7 | 0.00 | 0.00 | 0.00 | 84 | 1016.9 |
| 20260507030002 | 59 | 105 | 0.0 | 1.7 | 0.00 | 0.00 | 0.00 | 84 | 1016.7 |
| 20260507025002 | 59 | 89 | 0.0 | 1.7 | 0.00 | 0.00 | 0.00 | 84 | 1016.7 |
| 20260507024002 | 59 | 89 | 0.0 | 2.6 | 0.00 | 0.00 | 0.00 | 85 | 1016.6 |
| 20260507023501 | 59 | 40 | 0.0 | 2.6 | 0.00 | 0.00 | 0.00 | 85 | 1016.5 |
| 20260507022502 | 59 | 74 | 0.9 | 2.6 | 0.00 | 0.00 | 0.00 | 85 | 1016.3 |
| 20260507022001 | 59 | 69 | 0.0 | 3.5 | 0.00 | 0.00 | 0.00 | 86 | 1016.3 |
| 20260507020501 | 60 | 92 | 0.9 | 2.6 | 0.00 | 0.00 | 0.00 | 86 | 1015.9 |
| 20260507020002 | 60 | 96 | 0.9 | 2.6 | 0.00 | 0.00 | 0.00 | 86 | 1015.8 |
| 20260507015501 | 60 | 79 | 0.9 | 2.6 | 0.00 | 0.00 | 0.00 | 86 | 1015.7 |
| 20260507015001 | 60 | 80 | 0.9 | 2.6 | 0.00 | 0.00 | 0.00 | 86 | 1015.6 |
| 20260507014502 | 60 | 94 | 0.9 | 2.6 | 0.00 | 0.00 | 0.00 | 86 | 1015.5 |
| 20260507013502 | 60 | 119 | 0.0 | 0.9 | 0.00 | 0.00 | 0.00 | 86 | 1015.3 |
| 20260507013001 | 59 | 110 | 0.0 | 3.5 | 0.00 | 0.00 | 0.00 | 86 | 1015.2 |
| 20260507012502 | 59 | 113 | 0.0 | 3.5 | 0.00 | 0.00 | 0.00 | 86 | 1015.1 |
| 20260507012001 | 59 | 129 | 0.0 | 3.5 | 0.00 | 0.00 | 0.00 | 86 | 1015.0 |
| 20260507011502 | 59 | 87 | 0.0 | 2.6 | 0.00 | 0.00 | 0.00 | 86 | 1014.9 |
| 20260507011002 | 59 | 67 | 0.0 | 2.6 | 0.00 | 0.00 | 0.00 | 86 | 1014.7 |
| 20260507010502 | 59 | 65 | 0.0 | 1.7 | 0.00 | 0.00 | 0.00 | 86 | 1014.7 |
| 20260507010002 | 59 | 84 | 0.0 | 4.3 | 0.00 | 0.00 | 0.00 | 86 | 1014.8 |
| 20260507005502 | 59 | 77 | 0.9 | 4.3 | 0.00 | 0.00 | 0.00 | 86 | 1014.9 |
| 20260507005002 | 59 | 75 | 0.0 | 2.6 | 0.00 | 0.00 | 0.00 | 86 | 1014.7 |
| 20260507004501 | 59 | 98 | 0.0 | 1.7 | 0.00 | 0.00 | 0.00 | 86 | 1014.8 |
| 20260507003502 | 59 | 103 | 0.0 | 1.7 | 0.00 | 0.02 | 0.00 | 85 | 1014.8 |
| 20260507003002 | 60 | 96 | 0.0 | 1.7 | 0.00 | 0.02 | 0.00 | 85 | 1014.5 |
| 20260507002501 | 60 | 84 | 0.9 | 3.5 | 0.00 | 0.03 | 0.00 | 85 | 1014.4 |
| 20260507002002 | 60 | 88 | 0.0 | 3.5 | 0.00 | 0.04 | 0.00 | 85 | 1014.4 |
| 20260507001503 | 60 | 105 | 0.0 | 2.6 | 0.00 | 0.04 | 0.00 | 85 | 1014.4 |
| 20260507001002 | 60 | 110 | 0.0 | 2.6 | 0.00 | 0.04 | 0.00 | 85 | 1014.5 |
| 20260507000501 | 60 | 79 | 0.0 | 1.7 | 0.00 | 0.04 | 0.00 | 84 | 1014.3 |
| 20260507000002 | 60 | 40 | 0.0 | 1.7 | 0.00 | 0.04 | 0.00 | 85 | 1014.2 |
| 20260506235501 | 60 | 41 | 0.0 | 1.7 | 0.00 | 0.04 | 0.00 | 84 | 1014.1 |
| 20260506234002 | 60 | 79 | 0.0 | 1.7 | 0.00 | 0.04 | 0.00 | 84 | 1014.3 |
| 20260506233501 | 60 | 78 | 0.0 | 1.7 | 0.00 | 0.04 | 0.00 | 83 | 1014.3 |
| 20260506231501 | 60 | 105 | 0.0 | 1.7 | 0.00 | 0.04 | 0.00 | 83 | 1014.0 |
| 20260506230502 | 60 | 97 | 0.9 | 5.2 | 0.00 | 0.04 | 0.00 | 83 | 1014.0 |
| 20260506230002 | 60 | 92 | 0.9 | 5.2 | 0.00 | 0.04 | 0.00 | 83 | 1013.7 |
| 20260506225502 | 60 | 66 | 0.0 | 1.7 | 0.00 | 0.04 | 0.00 | 83 | 1013.8 |
| 20260506225001 | 60 | 83 | 0.9 | 1.7 | 0.00 | 0.04 | 0.00 | 83 | 1013.9 |
| 20260506224502 | 60 | 97 | 0.9 | 1.7 | 0.00 | 0.04 | 0.00 | 82 | 1013.9 |
| 20260506224001 | 61 | 92 | 0.0 | 1.7 | 0.00 | 0.04 | 0.00 | 83 | 1013.7 |
| 20260506223502 | 61 | 74 | 0.0 | 1.7 | 0.00 | 0.04 | 0.00 | 83 | 1013.8 |
| 20260506222502 | 61 | 80 | 0.0 | 1.7 | 0.00 | 0.04 | 0.00 | 82 | 1013.7 |
| 20260506222002 | 61 | 84 | 0.0 | 1.7 | 0.00 | 0.04 | 0.00 | 82 | 1013.7 |
| 20260506221502 | 61 | 69 | 0.0 | 1.7 | 0.00 | 0.04 | 0.00 | 82 | 1013.5 |
| 20260506221002 | 61 | 41 | 0.9 | 2.6 | 0.00 | 0.04 | 0.00 | 82 | 1013.4 |
| 20260506220502 | 61 | 33 | 0.9 | 2.6 | 0.00 | 0.04 | 0.00 | 81 | 1013.4 |
| 20260506220002 | 61 | 56 | 0.9 | 1.7 | 0.00 | 0.04 | 0.00 | 81 | 1013.1 |
| 20260506215502 | 61 | 41 | 0.9 | 2.6 | 0.00 | 0.04 | 0.00 | 81 | 1013.3 |
| 20260506215001 | 61 | 7 | 0.9 | 2.6 | 0.00 | 0.04 | 0.00 | 81 | 1013.2 |
| 20260506214502 | 61 | 334 | 0.0 | 1.7 | 0.00 | 0.04 | 0.00 | 80 | 1013.3 |
| 20260506214001 | 61 | 295 | 0.0 | 0.9 | 0.00 | 0.04 | 0.00 | 81 | 1013.4 |
| 20260506213502 | 61 | 59 | 0.0 | 1.7 | 0.00 | 0.04 | 0.00 | 80 | 1013.4 |
| 20260506213001 | 62 | 89 | 0.0 | 1.7 | 0.00 | 0.04 | 0.00 | 80 | 1013.4 |
| 20260506212502 | 62 | 97 | 0.0 | 1.7 | 0.00 | 0.04 | 0.00 | 80 | 1013.4 |
| 20260506211502 | 62 | 119 | 0.0 | 1.7 | 0.00 | 0.04 | 0.00 | 80 | 1013.5 |
| 20260506211002 | 62 | 113 | 0.0 | 1.7 | 0.00 | 0.04 | 0.00 | 79 | 1013.5 |
| 20260506210002 | 62 | 322 | 0.0 | 1.7 | 0.00 | 0.04 | 0.00 | 80 | 1013.5 |
| 20260506205002 | 62 | 79 | 0.9 | 1.7 | 0.00 | 0.04 | 0.00 | 79 | 1013.9 |
| 20260506204503 | 62 | 80 | 0.9 | 3.5 | 0.00 | 0.04 | 0.00 | 79 | 1013.7 |
| 20260506204002 | 62 | 96 | 0.0 | 3.5 | 0.00 | 0.04 | 0.00 | 79 | 1013.8 |
| 20260506203502 | 62 | 347 | 0.9 | 2.6 | 0.00 | 0.04 | 0.00 | 80 | 1013.8 |
| 20260506203002 | 62 | 283 | 0.9 | 2.6 | 0.00 | 0.04 | 0.00 | 79 | 1013.8 |
| 20260506200503 | 61 | 230 | 0.0 | 1.7 | 0.00 | 0.04 | 0.00 | 81 | 1014.4 |
| 20260506200003 | 61 | 278 | 0.0 | 1.7 | 0.00 | 0.04 | 0.00 | 80 | 1014.5 |
| 20260506195002 | 61 | 320 | 0.9 | 3.5 | 0.00 | 0.04 | 0.00 | 80 | 1014.4 |
| 20260506194502 | 61 | 8 | 0.9 | 3.5 | 0.00 | 0.04 | 0.00 | 81 | 1014.1 |
| 20260506194002 | 60 | 45 | 0.9 | 1.7 | 0.00 | 0.04 | 0.00 | 82 | 1013.7 |
| 20260506193502 | 60 | 110 | 0.0 | 1.7 | 0.00 | 0.04 | 0.00 | 84 | 1013.7 |
| 20260506193003 | 59 | 124 | 0.0 | 1.7 | 0.00 | 0.04 | 0.00 | 84 | 1013.9 |
| 20260506192502 | 58 | 140 | 0.0 | 1.7 | 0.00 | 0.04 | 0.00 | 84 | 1014.2 |
| 20260506192002 | 58 | 61 | 0.9 | 3.5 | 0.00 | 0.04 | 0.00 | 83 | 1014.7 |
| 20260506191502 | 58 | 352 | 0.9 | 3.5 | 0.00 | 0.04 | 0.00 | 83 | 1014.9 |
| 20260506191002 | 59 | 265 | 0.0 | 1.7 | 0.00 | 0.04 | 0.00 | 83 | 1014.8 |
| 20260506190502 | 59 | 264 | 0.0 | 1.7 | 0.00 | 0.04 | 0.00 | 83 | 1014.4 |
| 20260506185502 | 59 | 274 | 0.0 | 0.9 | 0.00 | 0.04 | 0.00 | 83 | 1014.1 |
| 20260506185002 | 59 | 272 | 0.0 | 0.9 | 0.00 | 0.04 | 0.00 | 82 | 1014.2 |